EW3173 Weather Reports


time (UTC)temp
C
wind
direction
speed
KPH
gust
KPH
rain 1hr
cm
rain 24hr
cm
rain mn
cm
humidity
%
barometer
mb
20260906224807 33 350 0.0 9.7 0.00 0.00 0.00 31 1020.0
20260906224307 33 340 4.8 9.7 0.00 0.00 0.00 31 1019.8
20260906223804 33 347 3.2 9.7 0.00 0.00 0.00 32 1020.0
20260906223304 32 355 1.6 4.8 0.00 0.00 0.00 32 1020.0
20260906221804 32 3 0.0 3.2 0.00 0.00 0.00 32 1020.3
20260906221304 32 11 0.0 0.0 0.00 0.00 0.00 33 1020.3
20260906220805 32 108 0.0 0.0 0.00 0.00 0.00 33 1020.5
20260906214808 32 345 0.0 0.0 0.00 0.00 0.00 33 1020.7
20260906214307 31 170 0.0 1.6 0.00 0.00 0.00 33 1020.8
20260906213805 32 170 0.0 4.8 0.00 0.00 0.00 32 1020.9
20260906213305 32 0 0.0 4.8 0.00 0.00 0.00 33 1021.0
20260906211805 32 280 0.0 0.0 0.00 0.00 0.00 31 1021.2
20260906210804 32 15 1.6 4.8 0.00 0.00 0.00 32 1021.5
20260906210305 32 182 0.0 8.0 0.00 0.00 0.00 31 1021.5
20260906204807 34 173 0.0 3.2 0.00 0.00 0.00 29 1021.8
20260906203805 35 35 0.0 4.8 0.00 0.00 0.00 31 1021.8
20260906203305 35 334 3.2 9.7 0.00 0.00 0.00 30 1021.9
20260906201805 34 342 0.0 3.2 0.00 0.00 0.00 32 1021.9
20260906201305 34 341 1.6 4.8 0.00 0.00 0.00 31 1022.0
20260906200804 35 349 1.6 4.8 0.00 0.00 0.00 31 1022.1
20260906200305 33 85 1.6 4.8 0.00 0.00 0.00 31 1022.1
20260906194306 35 11 3.2 4.8 0.00 0.00 0.00 31 1022.1
20260906193804 33 2 1.6 4.8 0.00 0.00 0.00 32 1022.3
20260906193304 32 40 1.6 3.2 0.00 0.00 0.00 31 1022.3
20260906191305 33 112 0.0 4.8 0.00 0.00 0.00 32 1022.7
20260906184808 31 31 1.6 4.8 0.00 0.00 0.00 37 1023.2
20260906184306 31 355 1.6 4.8 0.00 0.00 0.00 39 1023.4
20260906183805 31 107 1.6 4.8 0.00 0.00 0.00 38 1023.5
20260906183305 31 277 1.6 3.2 0.00 0.00 0.00 38 1023.6
20260906181805 31 2 1.6 4.8 0.00 0.00 0.00 39 1023.8
20260906181305 31 5 1.6 4.8 0.00 0.00 0.00 38 1023.9
20260906180805 31 23 1.6 4.8 0.00 0.00 0.00 39 1023.9
20260906180305 31 3 1.6 4.8 0.00 0.00 0.00 39 1023.9
20260906174307 28 19 0.0 4.8 0.00 0.00 0.00 43 1024.5
20260906173805 28 10 1.6 4.8 0.00 0.00 0.00 44 1024.6
20260906173304 28 0 1.6 4.8 0.00 0.00 0.00 44 1024.7
20260906171805 27 355 3.2 4.8 0.00 0.00 0.00 48 1025.0
20260906171304 26 285 1.6 3.2 0.00 0.00 0.00 49 1025.0
20260906170805 26 284 0.0 4.8 0.00 0.00 0.00 49 1025.2
20260906170304 26 281 1.6 4.8 0.00 0.00 0.00 48 1025.4
20260906164807 26 0 1.6 4.8 0.00 0.00 0.00 51 1025.4
20260906163804 25 278 1.6 4.8 0.00 0.00 0.00 54 1025.4
20260906163304 25 8 0.0 4.8 0.00 0.00 0.00 52 1025.4
20260906161805 23 353 1.6 4.8 0.00 0.00 0.00 59 1025.3
20260906161305 23 351 1.6 4.8 0.00 0.00 0.00 60 1025.2
20260906160805 23 349 0.0 4.8 0.00 0.00 0.00 60 1025.2
20260906160305 23 350 1.6 4.8 0.00 0.00 0.00 61 1025.2
20260906154808 23 23 1.6 4.8 0.00 0.00 0.00 62 1025.2
20260906154309 22 106 0.0 1.6 0.00 0.00 0.00 65 1025.3
20260906153805 22 328 0.0 4.8 0.00 0.00 0.00 65 1025.4
20260906153304 22 328 0.0 4.8 0.00 0.00 0.00 66 1025.3
20260906150805 20 355 1.6 4.8 0.00 0.00 0.00 70 1025.3
20260906144806 20 350 0.0 4.8 0.00 0.00 0.00 73 1025.3
20260906144307 20 330 1.6 8.0 0.00 0.00 0.00 74 1025.3
20260906143805 20 19 1.6 8.0 0.00 0.00 0.00 73 1025.3
20260906143304 20 19 1.6 8.0 0.00 0.00 0.00 72 1025.3
20260906141804 19 342 1.6 4.8 0.00 0.00 0.00 74 1025.3
20260906141305 19 355 0.0 4.8 0.00 0.00 0.00 75 1025.4
20260906140804 19 348 3.2 4.8 0.00 0.00 0.00 74 1025.4
20260906140305 18 296 0.0 8.0 0.00 0.00 0.00 74 1025.3
20260906134807 18 10 1.6 4.8 0.00 0.00 0.00 75 1025.3
20260906133805 18 303 0.0 3.2 0.00 0.00 0.00 76 1025.4
20260906133305 17 300 0.0 0.0 0.00 0.00 0.00 76 1025.4
20260906131804 17 308 0.0 0.0 0.00 0.00 0.00 75 1025.5
20260906131305 17 331 0.0 0.0 0.00 0.00 0.00 75 1025.5
20260906130805 17 339 0.0 0.0 0.00 0.00 0.00 77 1025.5
20260906124807 16 345 0.0 0.0 0.00 0.00 0.00 79 1025.4
20260906124307 16 345 0.0 0.0 0.00 0.00 0.00 79 1025.3
20260906123804 16 345 0.0 0.0 0.00 0.00 0.00 79 1025.4
20260906123305 16 345 0.0 0.0 0.00 0.00 0.00 78 1025.4
20260906121805 16 345 0.0 0.0 0.00 0.00 0.00 78 1025.3
20260906121305 16 345 0.0 0.0 0.00 0.00 0.00 79 1025.2
20260906120805 16 345 0.0 0.0 0.00 0.00 0.00 79 1025.1
20260906120305 16 345 0.0 0.0 0.00 0.00 0.00 78 1025.3
20260906114806 16 345 0.0 0.0 0.00 0.00 0.00 77 1025.3
20260906114306 16 345 0.0 0.0 0.00 0.00 0.00 77 1025.2
20260906113304 16 345 0.0 0.0 0.00 0.00 0.00 78 1025.2
20260906111804 16 345 0.0 0.0 0.00 0.00 0.00 77 1025.1
20260906111304 16 345 0.0 0.0 0.00 0.00 0.00 77 1025.1
20260906110804 17 345 0.0 0.0 0.00 0.00 0.00 76 1025.0
20260906110305 17 345 0.0 0.0 0.00 0.00 0.00 76 1025.0
20260906104807 17 348 0.0 0.0 0.00 0.00 0.00 75 1024.9
20260906103804 17 348 0.0 0.0 0.00 0.00 0.00 75 1025.0
20260906103304 17 348 0.0 0.0 0.00 0.00 0.00 74 1025.0
20260906101304 17 348 0.0 0.0 0.00 0.00 0.00 71 1025.0
20260906100305 17 348 0.0 0.0 0.00 0.00 0.00 71 1024.8
20260906094807 18 335 0.0 0.0 0.00 0.00 0.00 70 1024.9
20260906093804 18 350 0.0 0.0 0.00 0.00 0.00 67 1025.0
20260906093304 18 350 0.0 0.0 0.00 0.00 0.00 66 1025.0
20260906091805 18 350 0.0 0.0 0.00 0.00 0.00 63 1024.8
20260906091305 18 350 0.0 0.0 0.00 0.00 0.00 62 1024.7
20260906090804 18 350 0.0 0.0 0.00 0.00 0.00 61 1024.7
20260906084808 19 350 0.0 0.0 0.00 0.00 0.00 56 1024.6
20260906084308 20 350 0.0 0.0 0.00 0.00 0.00 55 1024.5
20260906083805 20 351 0.0 1.6 0.00 0.00 0.00 54 1024.5
20260906083305 20 355 0.0 3.2 0.00 0.00 0.00 52 1024.5
20260906081805 21 347 1.6 4.8 0.00 0.00 0.00 49 1024.5
20260906081304 21 342 0.0 3.2 0.00 0.00 0.00 49 1024.4
20260906080805 21 340 0.0 4.8 0.00 0.00 0.00 48 1024.4
20260906080304 21 340 0.0 4.8 0.00 0.00 0.00 48 1024.2
20260906074808 21 352 1.6 8.0 0.00 0.00 0.00 47 1024.0
20260906073805 21 348 3.2 4.8 0.00 0.00 0.00 48 1024.2
20260906073304 21 348 0.0 0.0 0.00 0.00 0.00 49 1024.2
20260906071804 21 178 0.0 3.2 0.00 0.00 0.00 49 1024.4
20260906071304 21 178 0.0 3.2 0.00 0.00 0.00 49 1024.3
20260906070805 21 178 0.0 3.2 0.00 0.00 0.00 50 1024.3
20260906070305 21 178 0.0 1.6 0.00 0.00 0.00 51 1024.2
20260906064807 20 178 0.0 0.0 0.00 0.00 0.00 52 1024.4
20260906064307 21 178 0.0 0.0 0.00 0.00 0.00 50 1024.5
20260906063804 21 178 0.0 0.0 0.00 0.00 0.00 50 1024.5
20260906063305 21 178 0.0 0.0 0.00 0.00 0.00 50 1024.5
20260906061305 22 178 0.0 0.0 0.00 0.00 0.00 48 1024.6
20260906060817 22 178 0.0 0.0 0.00 0.00 0.00 49 1024.6
20260906060305 22 178 0.0 3.2 0.00 0.00 0.00 47 1024.4
20260906054807 22 178 0.0 1.6 0.00 0.00 0.00 47 1024.0
20260906053805 23 178 0.0 0.0 0.00 0.00 0.00 46 1024.5
20260906051804 23 178 0.0 0.0 0.00 0.00 0.00 43 1025.1
20260906051305 23 178 0.0 0.0 0.00 0.00 0.00 43 1025.2
20260906050804 23 178 0.0 0.0 0.00 0.00 0.00 42 1025.3
20260906044807 22 20 0.0 0.0 0.00 0.00 0.00 44 1025.0
20260906044307 22 20 0.0 0.0 0.00 0.00 0.00 44 1024.7
20260906043805 22 20 0.0 0.0 0.00 0.00 0.00 44 1024.5
20260906043305 22 20 0.0 0.0 0.00 0.00 0.00 44 1024.5
20260906041804 22 20 0.0 0.0 0.00 0.00 0.00 44 1024.3
20260906041305 22 20 0.0 0.0 0.00 0.00 0.00 45 1024.3
20260906040804 22 20 0.0 0.0 0.00 0.00 0.00 45 1024.2
20260906040304 22 20 0.0 0.0 0.00 0.00 0.00 45 1024.1
20260906034806 22 20 0.0 0.0 0.00 0.00 0.00 44 1023.7
20260906034307 22 20 0.0 0.0 0.00 0.00 0.00 42 1023.7
20260906033804 22 20 0.0 0.0 0.00 0.00 0.00 42 1023.6
20260906033305 22 20 0.0 0.0 0.00 0.00 0.00 42 1023.5
20260906031305 23 20 0.0 0.0 0.00 0.00 0.00 39 1023.6
20260906030804 24 20 0.0 0.0 0.00 0.00 0.00 38 1023.5
20260906024808 24 20 0.0 0.0 0.00 0.00 0.00 37 1022.4
20260906024306 24 20 0.0 0.0 0.00 0.00 0.00 38 1022.4
20260906023804 24 20 0.0 0.0 0.00 0.00 0.00 38 1022.4
20260906023304 25 20 0.0 0.0 0.00 0.00 0.00 37 1022.3
20260906021805 25 20 0.0 0.0 0.00 0.00 0.00 36 1022.3
20260906021305 25 20 0.0 0.0 0.00 0.00 0.00 35 1022.2
20260906020804 26 20 0.0 0.0 0.00 0.00 0.00 35 1022.3
20260906020305 26 20 0.0 0.0 0.00 0.00 0.00 35 1022.3
20260906014806 26 18 0.0 0.0 0.00 0.00 0.00 34 1022.2
20260906014306 26 20 0.0 0.0 0.00 0.00 0.00 33 1022.1
20260906013805 27 14 0.0 0.0 0.00 0.00 0.00 33 1022.0
20260906013305 27 14 0.0 0.0 0.00 0.00 0.00 32 1021.9
20260906011805 27 51 0.0 0.0 0.00 0.00 0.00 31 1021.9
20260906010805 28 298 0.0 3.2 0.00 0.00 0.00 31 1021.9
20260906010304 28 16 0.0 4.8 0.00 0.00 0.00 30 1021.9
20260906004305 29 356 3.2 9.7 0.00 0.00 0.00 29 1022.0
20260906003804 29 341 0.0 8.0 0.00 0.00 0.00 28 1022.0
20260906003304 29 342 1.6 8.0 0.00 0.00 0.00 28 1022.0
20260906000804 31 0 3.2 8.0 0.00 0.00 0.00 26 1021.8
20260905234807 31 275 1.6 3.2 0.00 0.00 0.00 25 1021.7
20260905234305 31 336 0.0 0.0 0.00 0.00 0.00 25 1021.7
20260905233805 31 2 0.0 0.0 0.00 0.00 0.00 25 1021.7
20260905231805 32 13 0.0 3.2 0.00 0.00 0.00 24 1021.5
20260905230805 33 55 0.0 0.0 0.00 0.00 0.00 21 1021.4
20260905230304 33 53 0.0 3.2 0.00 0.00 0.00 23 1021.5